Regional Weather Roundup
Issued by NWS

Home | Current Version | Previous Version | Graphics & Text | Print | Product List | Glossary On
Versions: 1 2 3 4 5 6 7 8 9 10 11 12 13 14 15 16 17 18 19 20 21 22 23 24 25 26 27 28 29 30 31 32 33 34 35 36 37 38 39 40 41 42 43 44 45 46 47 48 49 50
000
ASUS43 KFSD 241210
RWRSD

WEATHER ROUNDUP FOR SOUTH DAKOTA
NATIONAL WEATHER SERVICE SIOUX FALLS SD
600 AM CST FRI FEB 24 2017

NOTE: "FAIR" INDICATES FEW OR NO CLOUDS BELOW 12,000 FEET WITH NO
SIGNIFICANT WEATHER AND/OR OBSTRUCTIONS TO VISIBILITY.


SDZ001>005-009-010-012>017-241300-
NORTHWEST AND NORTH CENTRAL SOUTH DAKOTA

CITY           SKY/WX    TMP DP  RH WIND       PRES   REMARKS
BUFFALO          N/A     14  10  84 NE7       29.98S WCI   4
FAITH            N/A     17  15  92 NE14      30.07R WCI   3
MOBRIDGE       CLOUDY    20  14  77 N13       30.06S WCI   7
$$

SDZ012>016-024>037-041>051-057-063-072>074-241300-
SOUTHWEST AND SOUTH CENTRAL SOUTH DAKOTA

CITY           SKY/WX    TMP DP  RH WIND       PRES   REMARKS
RAPID CTY ARPT CLOUDY    19  14  81 N15       30.01R WCI   5
PIERRE         CLOUDY    21  14  74 N16       30.06R WCI   7
CUSTER         LGT SNOW  15  11  83 NE7       29.85S FOG     WCI   5
ELLSWORTH AFB  CLOUDY    19  17  92 N10       30.01  WCI   8
PHILIP         CLOUDY    23  18  81 N13       30.06R WCI  11
PINE RIDGE     LGT SNOW  22  19  89 NE7       29.98R FOG     WCI  13
SPEARFISH      CLOUDY    19  18  93 E9        29.99S FOG     WCI   9
WINNER         CLOUDY    21  15  78 N20G26    30.00R WCI   6
$$

SDZ004>011-016>023-039-040-241300-
NORTHEAST SOUTH DAKOTA

CITY           SKY/WX    TMP DP  RH WIND       PRES   REMARKS
ABERDEEN       MOCLDY    20  12  71 N17       30.06S WCI   5
WATERTOWN      CLOUDY    18  10  71 N24G36    29.93S WCI   0
BROOKINGS      CLOUDY    19  14  81 N16G26    29.88R WCI   4
SISSETON         N/A     19  14  81 N22       30.03S WCI   2
$$

SDZ017-020-022-023-036>040-048>070-241300-
SOUTHEAST SOUTH DAKOTA

CITY           SKY/WX    TMP DP  RH WIND       PRES   REMARKS
SIOUX FALLS    CLOUDY    23  19  85 N26G35    29.85R FOG     WCI   6
HURON          CLOUDY    20  13  74 N22G30    29.99S WCI   3
CHAMBERLAIN    CLOUDY    23  16  75 N16G26    30.00R WCI   9
MITCHELL       CLOUDY    23  17  78 N23G31    29.95R WCI   7
YANKTON        CLOUDY   N/A N/A N/A N23       29.88R
$$

ABBREVIATIONS USED IN REMARKS
   TC - TEMPERATURE IN CELSIUS
  WCI - WIND CHILL INDEX
   HX - HEAT INDEX
  VSB - VISIBILITY




USA.gov is the U.S. government's official web portal to all federal, state and local government web resources and services.